Location: Chamberlain Observatory
(39.0028°N, 90.1630°W)
Time: 05:15:43
(UTC-05:00)

Daily predictions for brighter satellites

Satellite Brightness Start Highest point End
(mag) Time Altitude Azimuth Time Altitude Azimuth Time Altitude Azimuth
H-2A R/B 4.2 00:09:07 19° W 00:09:07 19° W 00:12:00 10° NW
ATLAS CENTAUR R/B 3.2 00:09:02 10° NNW 00:10:49 26° NNW 00:10:49 26° NNW
ARGOS Delta rocket 4.3 00:13:56 10° NNE 00:18:44 66° NE 00:18:44 66° NE
SL-16 R/B 2.3 00:20:13 10° NNW 00:25:26 71° WNW 00:25:26 71° WNW
Terra 4.3 00:30:03 12° W 00:30:03 12° W 00:31:34 10° WNW
CZ-2C R/B 3.3 00:39:13 74° NW 00:39:13 74° NW 00:44:27 10° NNW
Cosmos 1302 Rocket 4.4 00:36:46 10° NNW 00:41:09 60° NW 00:41:09 60° NW
Cosmos 1339 Rocket 4.3 00:42:21 86° SW 00:42:28 88° W 00:48:51 10° N
ALOS 2 3.7 00:44:27 41° NNW 00:44:27 41° NNW 00:47:24 10° NNW
Cosmos 1727 Rocket 3.8 00:43:32 82° WSW 00:43:38 83° W 00:49:55 10° N
Cosmos 2322 4.0 00:45:44 10° NNW 00:51:18 58° ENE 00:51:18 58° ENE
USA 267 3.6 00:45:56 10° NE 00:52:21 61° NW 00:55:16 34° WSW
SeaSat 1 2.9 00:53:41 56° NW 00:53:41 56° NW 00:57:35 10° NNW
Cosmos 1605 Rocket 4.2 00:47:35 10° NNW 00:53:30 57° W 00:53:30 57° W
Cosmos 1833 4.3 00:56:14 74° NNW 00:56:14 74° NNW 01:01:33 10° NNE
Meteor 2-15 4.5 00:56:19 67° W 00:56:23 67° W 01:02:26 10° N
ISS -0.4 00:55:03 10° N 00:56:27 12° NNE 00:57:37 11° NE
Lacrosse 5 3.0 00:56:51 37° WNW 00:57:35 39° NW 01:02:21 10° NNE
Meteor 2-5 Rocket 4.5 01:02:44 44° W 01:03:01 45° WNW 01:08:44 10° N
Cosmos 2219 4.0 01:04:29 41° ENE 01:04:29 41° ENE 01:08:52 10° NE
Cosmos 2360 Rocket 2.2 00:59:27 10° NNW 01:04:36 74° NNW 01:04:36 74° NNW
NOSS 3-1 (C) 4.3 00:58:31 10° NW 01:05:59 51° WSW 01:06:22 51° SW
COSMOS 2428 3.5 01:03:39 10° N 01:09:08 44° ENE 01:09:55 42° E
Cosmos 2173 Rocket 3.9 01:03:45 10° N 01:09:51 73° E 01:09:56 73° E
CZ-4B R/B 4.3 01:16:48 15° N 01:16:48 15° N 01:17:30 10° N
Cosmos 2322 Rocket 3.7 01:12:32 10° NW 01:16:01 25° W 01:16:01 25° W
Lacrosse 5 rocket 3.5 01:13:56 10° NW 01:15:50 24° WNW 01:15:50 24° WNW
Cosmos 2221 3.7 01:20:12 10° N 01:22:59 40° N 01:22:59 40° N
USA 234 3.7 01:21:19 22° ESE 01:25:38 58° NE 01:32:02 10° NW
Cosmos 1459 Rocket 3.9 01:24:55 10° N 01:31:17 75° W 01:31:27 75° WSW
Geosat 4.3 01:28:27 10° NNE 01:33:03 61° NW 01:33:03 61° NW
CZ-2C R/B 4.2 01:29:23 10° NNW 01:33:55 26° WNW 01:34:41 25° W
ATLAS 2AS CENTAUR R/B 3.4 01:31:32 10° NNW 01:39:28 59° NE 01:43:52 26° ESE
Cosmos 2333 Rocket 3.3 01:36:04 10° N 01:41:22 38° ENE 01:43:19 30° E
NOSS 3-3 (A) 4.0 01:45:43 64° ESE 01:45:44 64° ESE 01:52:11 10° NE
Cosmos 2297 Rocket 3.6 01:45:42 25° ESE 01:45:44 25° ESE 01:50:15 10° NE
NOSS 3-3 (C) 4.0 01:45:50 63° ESE 01:45:50 63° ESE 01:52:17 10° NE
Cosmos 2219 Rocket 2.7 01:42:43 10° NNW 01:48:18 53° ENE 01:49:22 46° E
Cosmos 1674 4.4 01:50:36 31° NNW 01:50:36 31° NNW 01:52:46 10° N
Cosmos 1802 Rocket 4.1 01:45:36 10° NNW 01:51:46 61° W 01:51:50 60° W
Cosmos 2016 Rocket 3.9 01:48:09 10° NNW 01:54:30 70° W 01:54:50 69° WSW
Cosmos 1726 3.8 01:57:07 10° N 01:59:25 33° NNE 01:59:25 33° NNE
Cosmos 2237 Rocket 3.1 02:02:41 10° N 02:08:04 43° ENE 02:10:34 28° ESE
Cosmos 1328 Rocket 4.1 02:04:34 10° N 02:08:20 57° NNE 02:08:20 57° NNE
SL-16 R/B 4.5 02:05:08 10° N 02:09:19 20° NE 02:13:28 10° E
Cosmos 1151 Rocket 4.2 02:07:01 10° N 02:11:03 36° ENE 02:11:07 36° E
Cosmos 1300 4.0 02:09:16 10° N 02:11:53 40° NNE 02:11:53 40° NNE
Meteor 2-10 4.3 02:09:37 10° N 02:14:42 60° E 02:15:17 56° ESE
Cosmos 1954 Rocket 3.9 02:17:53 83° ESE 02:17:54 83° ESE 02:23:10 10° NNE
Cosmos 407 Rocket 3.8 02:18:35 52° WNW 02:18:35 52° WNW 02:23:36 10° N
Cosmos 2123 Rocket 4.2 02:20:10 52° WSW 02:20:48 54° W 02:26:52 10° N
Resurs 1-4 Rocket 4.0 02:17:55 10° NE 02:21:42 20° E 02:23:39 16° ESE
Cosmos 2227 Rocket 2.1 02:22:51 67° SE 02:23:19 70° ESE 02:28:58 10° NNE
Helios 1A Rocket 3.4 02:19:13 10° NNE 02:22:38 59° N 02:22:38 59° N
H-2A R/B 3.9 02:20:25 10° N 02:23:39 31° NW 02:23:39 31° NW
ARIANE 5 R/B 4.5 02:23:07 10° NE 02:26:38 19° E 02:28:27 16° ESE
Cosmos 2228 Rocket 3.3 02:22:09 10° N 02:26:03 66° NNW 02:26:03 66° NNW
Cosmos 1447 Rocket 4.4 02:26:01 64° S 02:27:05 88° W 02:33:24 10° N
Cosmos 2058 3.5 02:32:09 52° ENE 02:32:09 52° ENE 02:35:48 10° NNE
Cosmos 2233 Rocket 3.9 02:28:59 10° N 02:35:19 78° W 02:36:35 58° SSW
Cosmos 676 Rocket 4.3 02:35:53 53° W 02:36:16 54° WNW 02:41:27 10° N
CZ-2D R/B 3.5 02:38:50 10° NE 02:43:24 30° E 02:45:23 23° SE
NOSS 0 Rocket 3.9 02:45:07 10° NNW 02:51:14 63° WSW 02:52:26 52° SSW
COSMOS 2428 4.1 02:48:32 10° NW 02:51:54 23° W 02:51:54 23° W
Cosmos 1500 Rocket 4.0 02:54:48 50° WNW 02:54:48 50° WNW 02:58:55 10° N
Cosmos 2082 3.6 02:53:37 58° SW 02:54:43 76° WNW 03:00:21 10° NNE
Cosmos 1455 3.2 02:51:50 10° N 02:55:33 43° E 02:56:14 38° ESE
SL-08 R/B 3.3 02:57:02 55° SSE 02:58:08 88° E 03:03:08 10° NNW
IRS-1C 4.2 02:53:09 10° NNE 02:58:30 71° ESE 02:59:59 47° S
Lacrosse 4 Rocket 2.4 03:02:51 33° SE 03:03:18 34° ESE 03:07:06 10° NE
Meteor 2-12 Rocket 4.5 02:57:56 10° NNW 03:03:58 60° W 03:05:31 46° SW
AQUA 3.7 03:00:16 10° NNE 03:05:03 86° WNW 03:05:53 61° SSW
Spot 4 Rocket 4.5 03:00:41 10° NNE 03:05:45 56° E 03:07:34 36° SSE
USA 234 3.6 03:08:35 39° SW 03:08:45 39° SW 03:14:48 10° WNW
Cosmos 1805 Rocket 3.8 03:07:49 49° SSE 03:08:47 65° E 03:13:10 10° NNE
Cosmos 1464 Rocket 3.9 03:03:03 10° N 03:09:14 86° E 03:12:17 32° S
Cosmos 1626 2.3 03:09:45 60° NW 03:09:45 60° NW 03:13:08 10° N
Meteor 1-11 4.5 03:09:22 44° WSW 03:10:41 54° WNW 03:16:21 10° N
Cosmos 2208 Rocket 4.0 03:05:35 10° NNW 03:10:49 78° ENE 03:13:46 27° SSE
Cosmos 1900 4.5 03:11:23 50° WSW 03:12:23 62° WNW 03:17:22 10° NNE
Meteor 1-27 4.3 03:08:05 10° NNW 03:13:48 60° W 03:15:29 43° SSW
Cosmos 1241 Rocket 4.4 03:08:25 10° NNW 03:14:54 88° ENE 03:21:12 10° SSE
ADEOS Rocket 3.6 03:08:27 10° NNE 03:16:02 81° ESE 03:20:34 28° S
DELTA 2 R/B (1) 3.4 03:15:06 43° WSW 03:16:58 79° SSE 03:22:32 10° E
IRS-1D 3.7 03:15:46 10° NNE 03:21:07 71° ESE 03:23:25 34° S
Cosmos 1869 4.2 03:19:06 10° N 03:23:01 47° E 03:25:10 23° SE
Cosmos 2333 Rocket 3.1 03:20:38 10° NW 03:25:16 28° W 03:25:16 28° W
Cosmos 1703 4.0 03:27:38 37° WNW 03:27:38 37° WNW 03:31:18 10° N
Cosmos 2151 4.3 03:28:22 25° WNW 03:28:26 25° WNW 03:31:59 10° NNW
Aureole 2 Rocket 4.2 03:25:44 10° NW 03:28:13 25° WNW 03:28:13 25° WNW
Cosmos 2297 Rocket 2.8 03:27:30 31° WSW 03:29:29 42° WNW 03:34:51 10° N
ATLAS 2AS CENTAUR R/B 3.6 03:23:21 10° NW 03:30:00 31° WSW 03:31:13 29° SW
NOSS 3-4 (A) 4.2 03:24:12 10° NNW 03:31:14 65° NE 03:38:43 10° SE
NOSS 3-4 (C) 4.3 03:24:18 10° NNW 03:31:20 65° NE 03:38:49 10° SE
Cosmos 2219 Rocket 3.7 03:27:45 10° NW 03:31:03 20° W 03:31:03 20° W
Cosmos 1980 4.4 03:28:21 10° NW 03:33:21 33° WSW 03:33:55 32° WSW
Sich 1 3.0 03:34:32 38° S 03:36:10 85° E 03:40:33 10° N
Cosmos 1633 Rocket 3.2 03:34:28 33° S 03:36:20 71° E 03:40:41 10° NNE
Cosmos 1356 4.4 03:40:52 33° WNW 03:40:52 33° WNW 03:44:05 10° N
SL-16 R/B 2.5 03:43:24 21° S 03:47:37 62° WSW 03:53:45 10° NNW
UNKNOWN OBJECT B 3.1 03:46:40 10° NNE 03:50:39 65° E 03:52:48 25° S
MOS 1 Rocket 4.1 03:45:38 10° NNE 03:50:47 58° E 03:55:15 15° S
Cosmos 2237 Rocket 3.2 03:47:22 10° NW 03:51:48 24° WSW 03:52:19 24° WSW
ATLAS 5 CENTAUR R/B 3.5 03:49:34 12° SSE 03:52:52 24° ESE 03:56:46 10° ENE
SL-16 R/B 2.2 03:48:16 10° NNW 03:53:51 59° WSW 03:59:21 10° S
ADEOS 3.7 03:51:51 10° N 03:56:59 60° WNW 03:59:54 26° SW
Cosmos 2227 4.3 03:56:31 21° SSW 04:00:25 78° ESE 04:06:11 10° NNE
Resurs 1-4 Rocket 2.5 03:56:40 10° N 04:01:47 49° WNW 04:04:44 24° SW
ARIANE 5 R/B 2.9 04:01:08 10° N 04:05:59 47° WNW 04:08:48 23° SW
Cosmos 2227 Rocket 4.1 04:04:40 11° W 04:07:56 18° NW 04:11:41 10° N
Cosmos 2034 Rocket 4.5 04:02:01 10° NNW 04:07:59 44° W 04:12:20 18° SSW
ADEOS II 3.8 04:03:29 10° NE 04:08:05 30° E 04:12:39 10° SSE
ATLAS 3B CENTAUR R/B 3.8 03:54:58 10° W 04:08:37 37° SSW 04:14:12 10° SE
Cosmos 1707 Rocket 4.5 04:12:58 10° NNW 04:16:47 30° W 04:18:44 21° SW
BREEZE M DEB (TANK) 3.3 04:15:57 20° S 04:17:16 30° SE 04:19:19 10° ENE
CZ-2D R/B 3.1 04:18:51 10° N 04:23:24 31° WNW 04:26:43 16° WSW
MOZ.5/SAFIR/RUBIN 5/SL-8 3.9 04:18:59 10° S 04:23:40 60° W 04:28:24 10° NNW
Cosmos 2242 Rocket 3.7 04:20:10 10° NNW 04:24:34 55° W 04:28:58 10° S
Cosmos 1867 4.4 04:20:47 10° S 04:25:56 46° ESE 04:31:07 10° NE
Cosmos 2263 Rocket 3.2 04:21:34 10° S 04:26:45 42° ESE 04:31:57 10° NE
OAO 3 Rocket 4.1 04:25:10 18° SW 04:28:16 35° SSE 04:32:45 10° E
Cosmos 1933 3.3 04:24:17 10° N 04:28:23 79° W 04:32:28 10° S
Cosmos 1892 3.6 04:26:03 10° SSE 04:29:42 48° E 04:33:24 10° NNE
CZ-3 R/B 4.1 03:43:18 10° W 04:30:39 58° SSW 04:41:03 10° ESE
Cosmos 1455 4.4 04:29:35 10° WNW 04:30:47 11° W 04:31:12 11° W
USA 161 0.5 04:30:02 26° S 04:30:53 54° WSW 04:32:47 10° NNW
Meteor 2-10 Rocket 3.4 04:29:37 10° N 04:34:39 86° WSW 04:39:43 10° S
Cosmos 1486 Rocket 4.2 04:31:21 15° SSW 04:35:40 59° WNW 04:40:51 10° N
Cosmos 1862 Rocket 3.5 04:31:39 10° NNW 04:35:56 65° W 04:40:12 10° S
GPS 2-04 Rocket1 4.4 04:36:03 15° SW 04:36:50 16° SSW 04:39:27 10° SSE
In-Cosmos 22 Rocket 4.1 04:33:50 10° SSW 04:39:08 74° W 04:44:27 10° N
Cosmos 1933 Rocket 3.9 04:36:03 12° SSW 04:39:58 50° W 04:44:19 10° N
Cosmos 841 Rocket 3.5 04:36:21 10° NNW 04:41:40 81° WSW 04:46:54 10° SSE
Lacrosse 4 Rocket 3.1 04:39:11 11° W 04:42:05 21° NW 04:45:18 10° N
Cosmos 1400 Rocket 2.8 04:38:34 10° SSW 04:42:26 68° W 04:46:24 10° N
USA 102 2.4 04:40:48 10° NNE 04:44:04 84° WNW 04:45:04 22° SSW
Landsat 4 3.7 04:47:07 10° S 04:50:54 81° WSW 04:54:44 10° NNW
Cosmos 371 Rocket 3.6 04:47:34 10° NNW 04:52:07 43° WSW 04:56:39 10° S
Meteor 1-26 Rocket 4.2 04:49:17 10° NNW 04:55:00 76° W 05:00:35 10° S
Cosmos 1703 Rocket 3.6 04:57:35 10° N 05:02:00 87° E 05:06:25 10° S
CZ-3A R/B 2.6 04:58:44 10° NW 05:02:23 86° NE 05:15:28 10° SE
DELTA 2 R/B (1) 3.7 04:57:54 10° W 05:03:29 85° N 05:09:03 10° E
Cosmos 2285 Rocket 4.1 04:59:57 10° NNW 05:06:08 62° WSW 05:12:20 10° S
RESURS DK-1 2.9 05:04:16 10° NNW 05:08:25 65° ENE 05:12:32 10° SSE
Cosmos 1825 3.9 05:05:29 10° SSE 05:08:56 34° E 05:12:25 10° NNE
Okean O Rocket 1.6 05:05:20 10° N 05:09:41 72° WNW 05:13:59 10° SSW
Cosmos 1763 Rocket 4.2 05:06:11 10° NW 05:10:48 32° W 05:15:20 10° SSW
BREEZE-M R/B 3.7 05:08:27 10° WSW 05:14:31 48° NW 05:17:45 10° NE
